Regional Weather Roundup
Issued by NWS

Home | Current Version | Previous Version | Text Only | Print | Product List | Glossary On
Versions: 1 2 3 4 5 6 7 8 9 10 11 12 13 14 15 16 17 18 19 20 21 22 23 24 25 26 27 28 29 30 31 32 33 34 35 36 37 38 39 40 41 42 43 44 45 46 47 48 49 50
000
ASUS43 KLOT 302308
RWRIL

ILLINOIS REGIONAL WEATHER ROUNDUP
NATIONAL WEATHER SERVICE CHICAGO/ROMEOVILLE IL
600 PM CDT TUE JUN 30 2015

NOTE: "FAIR" INDICATES FEW OR NO CLOUDS BELOW 12,000 FEET WITH NO
SIGNIFICANT WEATHER AND/OR OBSTRUCTIONS TO VISIBILITY.

* THESE STATIONS ARE NOT UNDER NWS QUALITY CONTROL. THEY ALSO MAY NOT
  REPORT WEATHER SUCH AS PRECIPITATION OR FOG.

ILZ001-002-007-009-015-016-024-010000-
NORTHWEST ILLINOIS

CITY           SKY/WX    TMP DP  RH WIND       PRES   REMARKS
MOLINE         MOSUNNY   81  62  52 NW7       29.84S HX  82
STERLING*      MOSUNNY   79  63  57 NW7       29.85S HX  80
SAVANNA*       MOSUNNY   77  59  53 N8        29.86S
$$

ILZ003-004-008-010-011-017-018-010000-
NORTH CENTRAL ILLINOIS

CITY           SKY/WX    TMP DP  RH WIND       PRES   REMARKS
ROCKFORD       PTSUNNY   76  59  55 NW6       29.86S
FREEPORT*      MOSUNNY   74  61  63 N3        29.87S
ROCHELLE*      MOSUNNY   74  60  61 NW9       29.86S
DE KALB*       CLOUDY    73  60  65 N5        29.86S
PERU*          PTSUNNY   77  62  59 N9        29.84F
$$

ILZ005-006-012>014-019>023-010000-
NORTHEAST ILLINOIS

CITY           SKY/WX    TMP DP  RH WIND       PRES   REMARKS
CHICAGO-OHARE  MOSUNNY   68  58  70 NE14      29.84R
CHICAGO-MIDWAY MOSUNNY   71  61  70 NE9       29.83S
AURORA         MOSUNNY   74  58  57 NW12      29.85S
LANSING*       SUNNY     71  58  64 N10       29.84R
JOLIET*        MOSUNNY   77  62  58 N8        29.83S
WAUKEGAN       PTSUNNY   21  18  88 N8        29.86R WCI  11
DUPAGE AIRPORT MOSUNNY   75  59  57 NW7       29.83S
KANKAKEE*      SUNNY     77  65  65 NW9       29.82S
WHEELING       MOSUNNY   65  58  78 NE12      29.87R
MORRIS*        MOSUNNY   76  61  59 N6        29.82S
ROMEOVILLE*    SUNNY     75  59  58 N9        29.83S
NORTHERLY ISL    N/A     61  58  90 N10         N/A
$$

LMZ740>746-010000-
SOUTHERN LAKE MICHIGAN

STATION/POSITION SKY/WX   TEMP    WIND        PRES    VSBY  WAVE
                          AIR SEA DIR/SP/G                  HT/PER
                          (F)     (DEG/KT/KT) (MB)    (MI)  (FT/S)
HARRISON CRIB              62      20/ 18/ 19   N/A
BURNHAM HARBOR             61     360/ 12/ 13   N/A
CALUMET HARBOR             67      10/  8/ 10   N/A
BURNS HARBOR               69      50/  6/  7 1010.8R
MICHIGAN CITY              66     350/  8/ 11   N/A
MICHIGAN CITY 6N           62 65   30/ 14/ 17   N/A           1/ 2
ST. JOSEPH                 63 65                N/A           2/ 3
$$

ILZ025>027-034>036-040-047-049-050-058-095>099-010000-
WEST-CENTRAL ILLINOIS

CITY           SKY/WX    TMP DP  RH WIND       PRES   REMARKS
QUINCY         PTSUNNY   79  66  64 NW6       29.86F HX  81
GALESBURG*     SUNNY     79  64  60 NW6       29.86S HX  80
MACOMB*        MOSUNNY   79  66  65 NW6       29.88S HX  81
JACKSONVILLE*  MOSUNNY   80  71  73 W6        29.85S HX  84
PITTSFIELD*    MOSUNNY   80  67  65 NW6       29.87S HX  82
$$

ILZ028>032-037-038-041>044-048-051>054-059>061-010000-
CENTRAL ILLINOIS

CITY           SKY/WX    TMP DP  RH WIND       PRES   REMARKS
PONTIAC        MOSUNNY   78  66  66 NW8       29.84S HX  80
BLOOMINGTON    MOSUNNY   80  64  58 N14       29.85S HX  81
DECATUR        MOSUNNY   80  67  64 NW9       29.82S HX  82
PEORIA         SUNNY     82  61  48 NW7       29.85R HX  83
LACON*         MOSUNNY   79  62  57 N6        29.83S HX  80
LINCOLN*       SUNNY     82  66  57 NW6       29.83S HX  85
SPRINGFIELD    SUNNY     83  68  60 W9        29.83F HX  86
TAYLORVILLE    SUNNY     79  68  69 W9G16     29.82F HX  81
$$

ILZ033-039-045-046-055>057-062-063-010000-
EAST-CENTRAL ILLINOIS

CITY           SKY/WX    TMP DP  RH WIND       PRES   REMARKS
CHAMPAIGN      MOSUNNY   80  66  62 NW12      29.82S HX  82
DANVILLE*      MOSUNNY   78  66  65 NW9       29.79S HAZE    HX  80
RANTOUL*       MOSUNNY   80  67  63 NW12      29.82F HX  82
MATTOON        LGT RAIN  72  64  76 E5        29.82R
PARIS*         PTSUNNY   75  66  73 SW9G20    29.83R THUNDER
$$

ILZ079-100>102-010000-
SOUTHWEST ILLINOIS

CITY           SKY/WX    TMP DP  RH WIND       PRES   REMARKS
ALTON          SUNNY     81  73  78 W7        29.85S HX  85
BELLEVILLE     SUNNY     82  70  66 W10       29.83F HX  86
CAHOKIA*       SUNNY     84  65  52 W10       29.85S HX  86
SPARTA*        SUNNY     82  68  63 W8        29.87S HX  84
$$

ILZ064>066-069>071-074>076-080>082-084>086-088>090-092>094-010000-
SOUTH-CENTRAL ILLINOIS

CITY           SKY/WX    TMP DP  RH WIND       PRES   REMARKS
CARBONDALE     SUNNY     82  67  60 W6        29.86F HX  84
CAIRO*         SUNNY     83  69  61 W3        29.87R HX  87
EFFINGHAM*     MOSUNNY   82  64  54 SW9       29.84S HX  83
MARION         CLOUDY    82  68  61 W9        29.86F HX  85
MT. VERNON     SUNNY     81  64  57 W8        29.85S HX  82
CENTRALIA*     SUNNY     81  65  59 W8        29.84F HX  82
SALEM*         SUNNY     83  66  57 W7        29.84F HX  85
METROPOLIS*    SUNNY     83  69  63 W5        29.88S HX  86
$$

ILZ067-068-072-073-078-083-087-091-010000-
SOUTHEAST ILLINOIS

CITY           SKY/WX    TMP DP  RH WIND       PRES   REMARKS
LAWRENCEVILLE  MOSUNNY   82  67  60 W13       29.82S HX  84
FLORA*         MOSUNNY   81  65  58 W9        29.84S HX  83
FAIRFIELD*     SUNNY     81  67  63 W5        29.83S HX  83
HARRISBURG*    SUNNY     81  68  65 W3        29.86F HX  84
ROBINSON*      PTSUNNY   80  66  60 W10       29.82S HX  82
CARMI*         SUNNY     82  63  53 SW8       29.83F HX  83
$$

ABBREVIATIONS USED IN REMARKS
   TC - TEMPERATURE IN CELSIUS
  WCI - WIND CHILL INDEX
   HX - HEAT INDEX
  VSB - VISIBILITY
$$




USA.gov is the U.S. government's official web portal to all federal, state and local government web resources and services.